Debrecen, Hungary

5:26 AM CEST on April 25, 2018 (GMT +0200)
Debrecen

Weather History for LHDC - September, 2013

Change the Weather History Date:

Monday, September 23, 2013

  Actual Average Record
Temperature  
Mean Temperature 58 °F -  
Max Temperature 69 °F 64 °F - ()
Min Temperature 46 °F 44 °F - ()
Degree Days  
Heating Degree Days 8    
Growing Degree Days 8 (Base 50)    
Moisture  
Dew Point 49 °F    
Average Humidity 69    
Maximum Humidity 94    
Minimum Humidity 48    
Precipitation  
Precipitation 0.00 in 0.04 in - ()
Sea Level Pressure  
Sea Level Pressure 29.97 in    
Wind  
Wind Speed 7 mph ()    
Max Wind Speed 14 mph    
Max Gust Speed -    
Visibility 7.2 miles    
Events      
T = Trace of Precipitation, MM = Missing Value Source: Averaged Metar Reports

Daily Weather History Graph

Daily Weather History Graph

Search for Another Location

Airport or City:

Astronomy

Sep. 23, 2013 Rise Set
Actual Time 6:21 AM CEST 6:29 PM CEST
Civil Twilight 5:50 AM CEST 6:59 PM CEST
Nautical Twilight 5:14 AM CEST 7:35 PM CEST
Astronomical Twilight 4:37 AM CEST 8:12 PM CEST
Moon 8:28 PM CEST (9/23) 10:41 AM CEST (9/23)
Length of Visible Light 13h 09m
Length of Day
12h 07m
Waning Gibbous, 83% of the Moon is Illuminated
Sep 23
Waning Gibbous
Sep 27
Last Quarter
Oct 5
New
Oct 12
First Quarter
Oct 19
Full

Hourly Weather History & Observations

Time (CEST) Temp. Windchill Dew Point Humidity Pressure Visibility Wind Dir Wind Speed Gust Speed Precip Events Conditions
2:00 AM 48 °F - 45 °F 85% 30.14 in - SSW 2.2 mph - -  
4:45 AM 48.2 °F - 46.4 °F 93% 30.06 in - South 5.8 mph - N/A   Clear
5:15 AM 48.2 °F - 46.4 °F 93% 30.06 in - SSW 5.8 mph - N/A   Clear
5:45 AM 48.2 °F - 46.4 °F 93% 30.06 in - SSW 4.6 mph - N/A   Clear
6:15 AM 46.4 °F 45.2 °F 44.6 °F 93% 30.06 in - South 3.5 mph - N/A   Clear
6:45 AM 48.2 °F - 44.6 °F 87% 30.06 in - Calm Calm - N/A   Clear
7:00 AM - - - N/A% - 6.2 mi South 5.8 mph - N/A   Clear
7:15 AM 46.4 °F 45.2 °F 44.6 °F 93% 30.04 in - South 3.5 mph - N/A   Clear
7:45 AM 48.2 °F - 46.4 °F 93% 30.04 in - South 5.8 mph - N/A   Clear
8:00 AM 48 °F - 46 °F 88% 30.03 in 7 mi South 6.7 mph - -   Partly Cloudy
8:15 AM 50.0 °F - 48.2 °F 94% 30.04 in - SSW 4.6 mph - N/A   Clear
8:45 AM 53.6 °F - 48.2 °F 82% 30.04 in - WSW 6.9 mph - N/A   Clear
9:15 AM 55.4 °F - 48.2 °F 77% 30.01 in - WSW 8.1 mph - N/A   Clear
9:45 AM 57.2 °F - 48.2 °F 72% 30.01 in - West 8.1 mph - N/A   Clear
10:01 AM - - - N/A% - 6.2 mi West 11.5 mph - N/A   Mostly Cloudy
10:15 AM 59.0 °F - 48.2 °F 67% 30.01 in - WSW 9.2 mph - N/A   Clear
10:45 AM 60.8 °F - 48.2 °F 63% 30.01 in - West 10.4 mph - N/A   Clear
11:15 AM 60.8 °F - 50.0 °F 68% 30.01 in 6.2 mi WSW 9.2 mph - N/A   Mostly Cloudy
11:45 AM 64.4 °F - 50.0 °F 59% 30.01 in 6.2 mi WSW 8.1 mph - N/A   Mostly Cloudy
12:15 PM 66.2 °F - 50.0 °F 56% 29.98 in 6.2 mi WSW 11.5 mph - N/A   Mostly Cloudy
12:45 PM 64.4 °F - 50.0 °F 59% 29.98 in 6.2 mi West 11.5 mph - N/A   Mostly Cloudy
1:00 PM - - - N/A% - 6.2 mi WSW 13.8 mph - N/A   Mostly Cloudy
1:15 PM 64.4 °F - 50.0 °F 59% 29.95 in 6.2 mi West 9.2 mph - N/A   Mostly Cloudy
1:45 PM 66.2 °F - 50.0 °F 56% 29.95 in 6.2 mi West 10.4 mph - N/A   Mostly Cloudy
2:00 PM 65 °F - 50 °F 48% 29.94 in 16 mi West 11.2 mph - -   Partly Cloudy
2:15 PM 66.2 °F - 50.0 °F 56% 29.95 in 6.2 mi West 9.2 mph - N/A   Mostly Cloudy
2:45 PM 68.0 °F - 50.0 °F 52% 29.92 in 6.2 mi West 11.5 mph - N/A   Mostly Cloudy
3:15 PM 68.0 °F - 51.8 °F 56% 29.92 in 6.2 mi West 10.4 mph - N/A   Mostly Cloudy
3:45 PM 69.8 °F - 50.0 °F 49% 29.92 in 6.2 mi West 9.2 mph - N/A   Scattered Clouds
4:15 PM 68.0 °F - 50.0 °F 52% 29.89 in 6.2 mi West 9.2 mph - N/A   Scattered Clouds
4:45 PM 68.0 °F - 50.0 °F 52% 29.89 in 6.2 mi West 11.5 mph - N/A   Mostly Cloudy
5:15 PM 68.0 °F - 51.8 °F 56% 29.89 in 6.2 mi West 13.8 mph - N/A   Scattered Clouds
5:45 PM 68.0 °F - 50.0 °F 52% 29.89 in 6.2 mi West 13.8 mph - N/A   Scattered Clouds
6:15 PM 66.2 °F - 50.0 °F 56% 29.86 in 6.2 mi West 13.8 mph - N/A   Scattered Clouds
6:45 PM 66.2 °F - 50.0 °F 56% 29.89 in 6.2 mi West 12.7 mph - N/A   Scattered Clouds
7:15 PM 64.4 °F - 50.0 °F 59% 29.86 in 6.2 mi West 11.5 mph - N/A   Scattered Clouds
7:45 PM 62.6 °F - 51.8 °F 68% 29.89 in - West 12.7 mph - N/A   Clear
8:00 PM 63 °F - 51 °F 56% 29.87 in 19 mi West 11.2 mph - -   Partly Cloudy
8:15 PM 60.8 °F - 51.8 °F 72% 29.89 in - West 12.7 mph - N/A   Clear
8:45 PM 60.8 °F - 51.8 °F 72% 29.89 in - WNW 12.7 mph - N/A   Clear
9:00 PM - - - N/A% - - North - - N/A   Unknown